Location: Jalan Sepang
(2.8072°N, 101.8021°E)
Time: 04:49:15
(UTC+00:00)

SL-08 R/B - Pass Details

Date: 15 May 2026
Orbit: 943 x 1006 km, 82.9° (Epoch: 7 June)

Event Time Altitude Azimuth Distance (km) Brightness Sun altitude
Exits shadow 13:12:10 71° 154° (SSE) 1,025 4.3 -27.8°
Maximum altitude 13:12:51 80° 93° (E) 988 4.3 -28.0°
Drops below altitude 10° 13:19:06 10° 6° (N) 2,731 7.0 -29.4°
Sets 13:21:38 0° 6° (N) 3,686 7.7 -30.0°
